Location: La Fredeussais
(48.1780°N, 1.3980°W)
Time: 05:12:43
(UTC+00:00)

X-37B - Pass Details

Date: 05 August 2021
Orbit: 381 x 393 km, 45.0° (Epoch: 29 August)

Event Time Altitude Azimuth Distance (km) Brightness Sun altitude
Exits shadow 02:52:46 25° 163° (SSE) 826 1.9 -15.6°
Maximum altitude 02:52:53 25° 159° (SSE) 825 1.9 -15.6°
Drops below altitude 10° 02:55:31 10° 102° (ESE) 1,398 3.8 -15.3°
Sets 02:57:47 0° 88° (E) 2,253 5.1 -15.1°
